This is the latest recevied weather packets stored in our database for station/object SQ9RHX-13. If no packets are shown the sender has not sent any weather packets the latest 10 day(s).
| Time | Temp. | Humidity | Pressure | Rain* | Wind** | Luminosity | Snow |
|---|---|---|---|---|---|---|---|
| 1777832703 | 23.33° C | 30% | 1016.8 hPa | 0 mm | - | 1 W/m² | - |
| 1777832402 | 23.33° C | 30% | 1016.8 hPa | 0 mm | - | 1 W/m² | - |
| 1777832103 | 23.33° C | 30% | 1017 hPa | 0 mm | - | 2 W/m² | - |
| 1777831804 | 23.33° C | 30% | 1016.7 hPa | 0 mm | - | 3 W/m² | - |
| 1777831506 | 23.89° C | 30% | 1016.9 hPa | 0 mm | - | 5 W/m² | - |
| 1777831203 | 23.89° C | 30% | 1016.7 hPa | 0 mm | - | 6 W/m² | - |
| 1777830903 | 23.89° C | 30% | 1016.6 hPa | 0 mm | - | 8 W/m² | - |
| 1777830603 | 24.44° C | 29% | 1016.7 hPa | 0 mm | - | 11 W/m² | - |
| 1777830305 | 24.44° C | 29% | 1016.7 hPa | 0 mm | - | 14 W/m² | - |
| 1777830004 | 24.44° C | 28% | 1016.7 hPa | 0 mm | - | 16 W/m² | - |
| 1777829703 | 25° C | 28% | 1016.6 hPa | 0 mm | - | 18 W/m² | - |
| 1777829402 | 25° C | 28% | 1016.6 hPa | 0 mm | - | 20 W/m² | - |
| 1777829103 | 25° C | 27% | 1016.7 hPa | 0 mm | - | 27 W/m² | - |
| 1777828803 | 25.56° C | 27% | 1016.6 hPa | 0 mm | - | 30 W/m² | - |
| 1777828505 | 25.56° C | 27% | 1016.7 hPa | 0 mm | - | 35 W/m² | - |
| 1777828203 | 25.56° C | 26% | 1016.6 hPa | 0 mm | - | 30 W/m² | - |
| 1777827904 | 25.56° C | 27% | 1016.5 hPa | 0 mm | - | 33 W/m² | - |
| 1777827604 | 26.11° C | 26% | 1016.8 hPa | 0 mm | - | 44 W/m² | - |
| 1777827304 | 26.11° C | 26% | 1016.4 hPa | 0 mm | - | 43 W/m² | - |
| 1777827003 | 26.11° C | 25% | 1016.6 hPa | 0 mm | - | 32 W/m² | - |
| 1777826705 | 26.11° C | 25% | 1016.6 hPa | 0 mm | - | 48 W/m² | - |
| 1777826403 | 26.11° C | 25% | 1016.5 hPa | 0 mm | - | 51 W/m² | - |
| 1777826103 | 26.67° C | 25% | 1016.6 hPa | 0 mm | - | 66 W/m² | - |
| 1777825803 | 26.67° C | 25% | 1016.8 hPa | 0 mm | - | 72 W/m² | - |
| 1777825503 | 26.67° C | 25% | 1016.7 hPa | 0 mm | - | 78 W/m² | - |
* Rain latest hour (hover to see other rain measurements)
** Current wind speed in m/s (hover to see current wind gust speed)